Location: Franzen
(48.6167°N, 15.3833°E)
Time: 13:26:10
(UTC+00:00)

NOSS 2-2 (D) - Pass Details

Date: 22 April 2021
Orbit: 456 x 1751 km, 63.3° (Epoch: 02 May)

Event Time Altitude Azimuth Distance (km) Brightness Sun altitude
Rises 22:17:53 0° 319° (NW) 3,043 8.0 -28.3°
Reaches altitude 10° 22:19:55 10° 320° (NW) 2,264 7.2 -28.3°
Maximum altitude 22:25:09 79° 48° (NE) 951 4.4 -28.5°
Enters shadow 22:25:43 72° 101° (E) 1,000 4.4 -28.5°
